SJ-6D (29506 NORAD) Tracking and Keplerian Element Data

This shows tracking and keplerian element data for the satellite.

Feedback or suggestion? Click here.




ElementValue
Catalog29506
NameSJ-6D
Epoch Orbit66144
Epoch Day351.88282484
Epoch Year2018
RAAN356.945
Inclination97.8484
Eccentricity0.0003135
Argument of Perigee116.9943
Mean Anonmoly243.161
Mean Motion14.93411103
Decay Rate-4.6E-06
L11 29506U 06046B 18351.88282484 -.00000460 00000-0 -38360-4 0 9996
L22 29506 97.8484 356.9450 0003135 116.9943 243.1610 14.93411103661446

Live tracking and technical data element details for SJ-6D (NORAD 29506). SJ-6D can be tracked NOW for your location showing map with azimuth and elevation plus other details from your city location.

Track the satellite on the map from your city or location and see movement details for azimuth, elevation, latitude, longitude, range, height, and movement on the map or in text.







IsCatalogInMostPopularTable: catalog: 29506, numindb: 70
Update: records affected: 1



GetName: 29506 SJ-6D

Hit Count: updated at: Tue, 18 Dec 2018 21:07:27 GMT